RH
18 18 17 18 26 24 22 15 14 16 10 23 25 24 23 24 24 23 21 21 25 30 29 28 27 23 19 22 22 22 40 37 30 32 36 39 37 41 41 37 39 42 41 39 28
18 18 17 16 23 23 21 15 14 11 24 24 23 24 24 23 23 24 25 21 28 28 26 25 24 24 25 27 24 30 45 35 30 34 44 43 41 41 38 37 37 37 32 29 24
17 17 17 17 19 23 21 14 14 28 28 26 29 36 37 31 22 30 29 25 26 26 24 24 23 23 25 25 29 28 37 31 34 37 39 40 40 42 41 38 43 42 40 36 30
18 19 18 18 19 24 22 14 24 30 32 29 29 30 28 26 31 28 30 30 28 26 25 23 22 23 28 31 27 33 37 31 37 34 36 38 38 41 41 41 38 39 37 28 26
19 19 20 19 19 23 23 17 26 29 30 30 25 24 24 24 24 26 24 26 26 25 21 22 21 24 31 27 26 32 34 38 39 38 40 39 40 38 38 32 34 34 28 31 32
22 22 21 18 22 22 24 23 29 30 26 24 23 22 20 26 20 22 24 24 24 22 20 20 23 23 25 29 33 32 35 36 38 37 38 38 40 36 37 31 29 27 37 35 28
24 22 20 19 22 22 24 25 28 28 23 23 22 19 18 21 18 22 23 24 24 24 23 23 22 23 25 28 28 30 32 30 36 36 36 35 43 39 34 28 27 29 31 30 31
23 22 22 21 21 24 26 26 25 24 24 24 23 18 21 21 23 22 22 24 24 24 20 16 20 20 25 25 26 28 34 35 36 36 37 35 59 37 36 29 39 33 31 34 35
25 23 22 23 26 27 26 26 25 24 23 23 22 19 23 23 22 22 23 23 24 22 18 19 17 21 24 29 32 36 39 39 39 40 36 38 47 38 39 40 41 36 34 36 36
26 25 25 26 27 27 28 27 26 25 23 24 20 16 20 23 23 20 20 22 23 20 16 18 21 32 34 29 26 33 38 38 44 40 38 43 44 41 44 44 47 41 39 37 39
27 28 27 27 26 28 27 25 23 21 23 29 25 24 22 21 22 21 20 22 22 19 31 25 31 41 36 37 30 33 34 40 45 40 41 43 44 43 47 48 47 48 44 46 48
29 29 27 27 27 26 27 24 23 22 26 23 22 24 24 19 18 22 19 18 20 30 27 30 38 35 35 36 32 31 34 46 47 42 38 43 47 42 45 49 50 50 50 55 50
28 29 28 28 26 26 27 20 21 22 22 24 25 23 24 23 27 26 22 26 28 34 36 35 31 30 29 39 32 33 31 39 34 41 38 42 49 44 42 48 48 47 49 54 60
27 28 28 26 26 26 20 22 26 26 30 30 24 24 24 23 26 26 26 25 29 33 33 35 31 31 34 36 36 29 35 35 49 48 47 43 51 48 44 45 47 45 50 55 62
25 27 27 27 26 26 21 26 23 28 27 27 26 24 25 28 30 26 27 23 34 35 30 33 35 37 37 35 34 28 36 38 47 46 50 51 59 61 44 46 42 46 50 57 63
24 27 28 28 27 23 26 26 22 23 34 26 27 30 27 31 35 28 27 25 30 34 36 37 33 36 36 33 32 34 29 32 42 47 48 52 53 58 51 45 45 46 49 55 63
19 24 27 28 26 26 26 22 30 34 29 29 32 33 39 41 42 49 54 59 54 30 46 39 38 37 35 35 34 38 25 24 22 24 26 48 46 51 47 44 44 50 49 57 71
20 21 25 25 28 25 26 27 29 35 36 34 32 35 41 43 49 53 53 60 57 54 58 46 32 44 38 35 39 42 29 23 21 22 26 45 46 46 43 43 46 43 49 62 81
20 22 23 26 28 25 24 42 35 37 34 34 32 36 41 41 42 53 64 64 60 61 45 50 39 38 37 34 33 34 45 41 38 44 44 47 44 39 39 40 44 47 52 67 84
25 24 34 28 26 25 44 56 48 46 41 33 33 38 40 47 42 51 53 57 57 54 54 55 41 42 36 33 33 32 35 20 29 23 22 30 57 49 42 44 49 51 56 75 88
30 32 31 31 29 26 45 50 48 46 40 36 38 44 46 44 50 57 58 58 55 54 39 47 51 34 34 46 45 40 32 38 32 45 30 42 30 41 42 44 48 54 61 82 89
30 44 40 34 36 64 59 48 44 44 41 42 41 42 44 46 55 59 55 58 47 47 41 42 51 45 43 37 30 32 32 27 24 22 50 54 38 38 39 40 51 58 70 84 90
32 43 44 39 44 73 61 58 53 44 50 43 46 43 44 53 51 62 62 55 35 32 33 35 40 34 28 33 26 29 30 35 37 40 40 38 30 42 35 48 48 59 76 89 92
31 52 39 36 43 59 59 55 54 48 47 45 48 43 47 50 60 68 65 58 38 47 37 39 45 33 28 26 32 39 33 34 36 42 40 42 40 31 37 51 56 69 88 94 90
28 41 44 53 50 52 50 53 53 49 47 45 47 45 46 52 50 58 65 53 38 39 35 32 37 38 38 37 37 38 37 39 40 39 38 36 40 35 45 56 60 80 92 92 94
31 37 42 53 49 48 52 48 50 57 48 46 50 47 44 49 44 51 61 53 44 35 39 42 35 41 37 41 39 40 39 40 40 36 41 38 40 39 46 51 68 85 98 99 100
37 34 31 63 54 47 53 56 51 48 50 51 47 48 44 43 40 42 41 41 36 39 44 44 42 30 29 39 37 38 44 39 36 35 34 42 37 50 52 61 84 97 99 95 85
Wind_Speed
5 6 7 7 8 9 10 10 11 14 16 18 17 19 19 18 13 12 14 11 11 11 11 10 10 11 14 13 10 6 5 3 3 3 5 9 12 25 21 33 37 21 21 18 25
4 4 5 6 9 11 11 11 15 17 19 19 18 17 15 15 19 23 16 11 9 9 9 10 13 13 9 8 8 8 4 5 6 8 12 21 16 10 13 22 24 26 25 26 28
4 3 4 6 10 12 12 14 18 17 16 13 8 5 5 4 12 17 13 11 9 9 10 10 10 12 10 10 8 6 4 6 17 29 24 28 38 4 6 17 16 19 22 28 30
4 3 3 7 12 13 14 16 18 16 13 11 10 10 10 3 5 11 10 10 10 10 10 13 10 6 6 5 7 7 19 11 7 14 18 14 19 35 30 18 18 21 24 29 34
3 3 6 11 14 15 15 17 16 14 11 11 13 13 16 21 12 10 8 8 8 8 10 9 12 7 5 5 12 8 12 23 31 37 36 36 32 24 25 21 22 25 29 32 32
5 6 10 15 16 16 17 18 15 12 13 14 16 15 14 21 11 8 8 9 9 10 11 12 8 12 11 6 6 12 29 20 18 25 14 26 23 9 16 19 25 27 30 31 31
7 11 15 18 18 19 18 17 12 14 22 22 17 16 26 11 9 8 8 9 11 11 13 11 11 4 9 12 22 22 16 13 11 6 16 11 21 12 12 21 28 28 28 28 29
12 16 17 18 21 21 18 19 24 18 14 13 14 16 11 11 10 9 9 9 10 10 13 16 7 12 7 19 6 2 3 4 8 6 9 6 5 10 13 22 24 27 27 27 28
15 17 19 22 25 24 20 16 14 13 10 7 5 7 6 7 12 11 7 7 9 12 13 9 15 10 5 4 3 6 3 3 3 25 3 9 10 7 13 19 22 25 26 26 26
17 19 22 24 23 19 16 14 12 9 7 5 7 5 11 10 11 7 9 6 6 4 5 7 10 4 4 5 2 1 2 3 5 6 20 20 14 7 9 18 19 24 26 26 26
18 20 22 22 20 20 20 16 11 13 24 15 14 12 9 8 12 9 5 8 8 10 5 11 10 4 3 3 1 3 3 5 3 6 7 13 13 7 7 14 17 20 25 27 28
18 19 19 19 21 18 8 3 6 12 13 18 15 10 15 10 8 16 11 7 9 4 3 6 6 3 3 4 4 4 5 3 5 7 7 9 8 4 4 8 12 15 20 25 29
17 18 18 19 18 12 5 16 14 6 6 8 12 13 9 10 12 17 10 7 9 8 7 6 2 4 3 6 3 1 4 3 1 8 9 11 3 3 1 2 8 13 19 23 28
16 17 18 15 9 7 14 10 3 2 5 11 9 9 12 3 7 17 10 4 7 3 3 5 5 3 5 5 2 1 3 2 12 6 3 6 2 4 4 2 4 12 18 20 27
15 16 15 11 3 11 13 5 3 1 4 7 5 4 16 9 3 17 12 15 5 3 3 0 5 6 6 2 1 3 1 3 4 5 3 6 3 2 2 2 7 9 14 19 25
13 15 14 12 2 12 10 0 3 5 2 3 5 7 5 13 6 9 8 10 5 5 7 2 1 3 2 3 2 6 3 4 3 2 2 3 4 5 4 2 4 9 15 19 25
10 11 13 11 6 11 8 2 5 6 3 4 3 4 4 7 7 9 6 8 5 3 6 6 3 5 5 4 5 8 4 3 3 2 3 2 2 2 6 5 4 9 17 20 20
9 9 11 8 9 11 7 5 6 2 1 1 1 3 5 5 4 6 3 5 6 5 3 4 3 5 10 2 2 4 3 3 4 3 4 2 4 1 5 4 7 14 16 17 20
10 10 9 8 12 12 3 5 4 4 2 5 3 4 4 2 3 4 4 2 2 5 3 2 1 2 4 4 1 1 5 1 1 1 0 2 1 0 2 5 11 16 18 16 21
10 10 10 11 12 9 4 4 2 1 0 1 3 1 2 4 2 4 2 2 3 4 1 2 2 1 3 1 9 5 3 2 3 5 6 2 3 1 1 5 9 16 18 16 22
11 6 8 11 10 2 4 3 3 1 1 3 3 3 2 2 3 2 1 1 1 4 5 2 2 2 1 4 1 3 2 5 3 1 2 5 2 5 2 3 8 15 20 18 25
6 4 9 12 4 4 3 4 4 3 3 2 4 3 2 2 3 2 3 1 2 1 2 1 3 3 2 0 1 2 3 3 3 2 0 1 4 7 3 9 10 17 20 22 23
6 5 7 6 4 2 2 3 4 2 3 2 3 2 2 3 2 2 2 2 3 2 3 3 1 3 2 1 2 2 1 4 4 2 5 3 2 5 6 11 22 22 22 24 18
5 3 3 2 5 8 6 3 3 3 3 5 4 3 3 2 4 5 3 2 1 3 4 2 2 4 5 2 1 3 3 4 4 3 3 5 4 3 8 9 18 18 17 15 23
4 2 5 2 1 8 5 4 4 3 3 2 3 2 4 3 1 2 2 1 2 2 2 2 2 1 4 2 2 3 5 6 7 3 6 2 3 7 5 11 19 17 18 17 23
6 6 6 5 12 8 2 3 4 3 2 0 5 1 1 4 3 6 5 4 2 2 2 2 1 1 4 1 3 5 7 5 4 3 6 4 6 5 15 20 18 22 12 16 21
6 8 5 2 3 3 3 5 5 10 4 3 9 4 3 2 5 8 4 7 6 5 2 2 2 2 4 3 5 5 6 7 3 3 4 4 4 4 11 15 16 14 13 23 24
Wind_Direction
52 74 80 89 102 110 105 99 105 114 116 111 102 95 89 80 78 76 58 55 68 65 61 62 58 71 74 63 52 71 64 65 50 65 82 31 86 63 69 69 64 69 65 46 44
43 71 90 107 114 109 110 107 114 118 117 115 105 98 89 83 71 60 51 60 73 55 61 66 68 75 67 43 34 60 72 53 13 93 90 66 78 92 72 56 52 56 57 50 46
38 75 109 112 118 120 119 116 118 117 116 118 109 83 64 73 57 29 46 64 62 56 55 54 60 65 60 54 31 46 63 90 81 112 101 89 63 89 90 51 45 41 37 41 44
44 85 98 130 133 127 124 123 123 117 110 96 78 85 69 85 74 23 46 56 55 55 54 53 71 71 66 62 39 89 39 99 144 101 95 84 90 70 65 70 60 55 54 47 43
54 73 122 131 132 130 128 128 127 116 99 85 83 89 88 77 53 44 51 55 60 60 54 71 67 74 73 77 81 104 94 69 94 90 89 91 75 78 61 67 66 61 53 48 46
64 95 117 129 131 131 133 128 121 110 103 92 89 86 77 70 47 51 69 72 70 66 65 69 74 93 75 67 60 108 112 109 86 88 98 85 58 67 45 70 66 59 53 50 45
86 106 120 128 130 132 131 123 117 114 112 103 94 72 64 56 54 74 84 79 74 73 74 72 68 123 120 90 118 119 107 93 26 137 144 72 50 69 59 66 64 59 57 50 45
109 114 120 124 125 122 120 121 117 117 105 91 87 77 76 52 74 85 85 86 78 82 81 64 87 78 66 119 107 87 67 92 31 317 18 126 89 52 57 67 58 53 49 44 38
119 119 123 123 123 120 121 125 125 116 95 74 78 78 58 59 70 74 93 89 90 84 74 83 58 64 79 88 50 21 105 77 114 15 89 69 124 80 67 66 57 48 42 36 30
127 124 124 127 129 123 117 115 113 109 111 66 60 78 37 32 52 63 71 100 121 57 58 56 58 67 35 41 184 7 84 61 66 50 75 94 122 115 68 67 56 44 37 32 27
133 129 131 132 131 125 120 112 100 76 72 73 69 73 56 64 49 45 72 95 91 60 57 36 63 44 5 337 314 109 89 108 124 132 80 113 123 117 79 61 49 39 31 25 21
141 140 139 139 139 139 127 120 124 122 77 66 68 65 43 49 63 59 78 68 55 68 2 40 54 334 274 356 125 138 131 88 77 108 84 135 119 120 78 58 47 35 27 20 11
147 147 150 150 152 148 53 124 121 109 86 40 40 32 18 36 44 14 42 74 68 57 38 91 322 356 128 28 58 58 119 173 215 97 68 133 144 190 110 71 35 30 24 18 7
150 152 154 155 155 175 138 127 97 60 79 336 358 22 8 63 56 23 38 67 48 114 72 77 356 38 51 59 47 354 61 254 142 155 232 203 276 204 185 25 341 13 11 5 3
160 163 165 162 155 156 156 126 39 120 61 326 356 12 33 71 339 12 35 69 79 42 100 15 15 16 46 328 359 258 343 137 136 161 136 196 274 105 176 316 335 340 355 0 356
161 176 181 191 147 163 166 139 345 46 89 356 0 1 39 30 32 19 48 70 79 82 46 72 10 57 300 298 321 294 96 54 66 130 232 167 196 174 181 197 290 329 346 350 346
149 168 188 205 198 180 182 312 41 83 318 338 0 25 91 9 21 29 39 31 42 48 18 352 10 334 17 5 360 18 45 351 359 352 264 61 212 39 171 226 275 318 343 340 335
142 156 162 177 165 168 165 54 76 189 192 153 68 59 75 7 25 15 65 35 26 33 76 45 323 10 342 78 264 16 66 111 301 291 305 330 247 104 203 248 319 332 329 333 345
129 139 152 155 157 161 151 59 175 202 166 141 90 78 16 358 104 76 51 40 333 6 79 54 267 342 50 27 52 21 49 197 234 85 271 266 223 31 220 326 341 346 339 339 349
132 124 125 139 151 153 78 141 141 185 150 34 105 34 124 338 50 57 33 301 322 28 220 205 4 15 296 297 45 95 142 10 20 342 306 272 276 136 257 322 324 338 335 340 349
142 108 136 141 143 102 107 139 139 102 108 56 135 108 105 122 79 71 138 245 12 339 44 97 94 264 349 24 257 4 61 59 118 134 256 305 286 153 170 325 316 327 344 343 348
151 83 152 150 66 57 93 132 128 125 81 79 92 98 107 108 85 116 173 96 5 358 74 324 137 269 268 4 276 98 127 116 124 241 177 21 284 156 81 330 324 333 351 347 349
131 103 156 180 128 89 133 73 81 103 42 74 88 71 74 101 97 139 148 150 38 91 147 167 29 336 311 16 1 68 121 95 87 85 213 166 274 200 322 335 352 344 345 347 346
155 87 114 155 113 129 137 124 103 64 85 83 114 101 107 92 19 163 151 181 76 104 77 127 131 191 216 237 137 262 187 166 150 166 185 233 297 289 330 333 333 344 348 350 343
157 119 144 169 128 116 102 126 127 122 79 91 67 84 147 125 102 159 141 169 117 99 60 91 232 228 273 206 204 242 226 190 201 184 201 173 270 289 296 320 333 343 350 347 343
154 144 111 82 130 109 66 153 137 132 68 107 131 143 60 160 187 202 150 199 171 89 86 9 255 36 276 200 301 265 244 228 212 217 263 282 294 207 324 338 337 340 349 345 344
171 155 140 86 123 101 165 162 153 130 66 85 145 114 86 108 109 98 109 111 127 142 131 78 119 54 273 332 311 283 218 190 177 202 182 236 236 303 319 332 333 342 347 347 344